Date String (YYYY-MM-DD hh:mm:ss) UTC,Instrument flags,absolute air pressure of the measurement (hPa),sample flow rate (lpm),inlet stack bypass flow (lpm),air temperature of the measurement (°C),ambient temperature measured by the external sensor (°C),aerosol sample conditioner tube jacket temperature (°C),OPC LED temperature (°C),internal box temperature (°C),relative humidity of the measurement (%),span deviation,mass concentration of particles derived from Lorenz-Mie calculation of OPC scattering (μg/m³),mass concentration of particles derived from Lorenz-Mie calculation of OPC scattering (μg/m³),mass concentration of particles derived from Lorenz-Mie calculation of OPC scattering (μg/m³)
DateTimeUTC,F1_M11,P_M11,Q1_M11,Q2_M11,T1_M11,T2_M11,T3_M11,T4_M11,T5_M11,U1_M11,ZSPAN_M11,X0_M11,X2_M11,X1_M11
2024-02-09 13:00:00,SystemResetWarning,0821.0,5.00,000.00,018.6,018.2,000.0,026.9,020.2,13.5,0000.0,0002.28,0001.32,0000.99
2024-02-09 13:01:00,SystemResetWarning,0821.1,4.99,000.00,018.6,018.2,000.0,026.9,020.2,13.6,0000.0,0002.14,0001.28,0001.00
2024-02-09 13:02:00,SystemResetWarning,0820.9,4.99,000.00,018.6,018.1,000.0,026.9,020.2,13.9,0000.0,0002.12,0001.32,0001.01
2024-02-09 13:03:00,SystemResetWarning,0821.1,5.00,000.00,018.6,018.1,000.0,026.9,020.2,14.0,0000.0,0002.62,0001.33,0001.02
2024-02-09 13:04:00,SystemResetWarning,0821.1,5.00,000.00,018.5,018.0,000.0,026.9,020.1,14.1,0000.0,0002.83,0001.33,0001.01
2024-02-09 13:05:00,SystemResetWarning,0821.1,5.01,000.00,018.5,018.0,000.0,026.9,020.0,14.2,0000.0,0003.08,0001.32,0001.02
2024-02-09 13:06:00,SystemResetWarning,0821.1,5.00,000.00,018.5,017.9,000.0,026.8,020.0,14.2,0000.0,0003.12,0001.31,0001.02
2024-02-09 13:07:00,SystemResetWarning,0821.1,5.00,000.00,018.5,017.9,000.0,026.8,020.0,14.1,0000.0,0003.18,0001.33,0001.03
2024-02-09 13:08:00,SystemResetWarning,0821.1,4.99,000.00,018.4,017.9,000.0,026.8,020.0,14.1,0000.0,0002.95,0001.34,0001.04
2024-02-09 13:09:00,SystemResetWarning,0821.1,4.99,000.00,018.4,017.9,000.0,026.8,020.0,14.2,0000.0,0003.05,0001.33,0001.04
2024-02-09 13:10:00,SystemResetWarning,0821.0,5.01,000.00,018.4,017.8,000.0,026.8,020.0,14.2,0000.0,0003.12,0001.33,0001.03
2024-02-09 13:11:00,SystemResetWarning,0821.1,5.00,000.00,018.4,017.8,000.0,026.8,020.0,14.2,0000.0,0003.25,0001.34,0001.03
2024-02-09 13:12:00,SystemResetWarning,0821.1,5.00,000.00,018.4,017.8,000.0,026.8,020.0,14.2,0000.0,0003.46,0001.37,0001.04
2024-02-09 13:13:00,SystemResetWarning,0821.0,5.01,000.00,018.4,017.8,000.0,026.8,020.0,14.2,0000.0,0003.70,0001.35,0001.03
2024-02-09 13:14:00,SystemResetWarning,0821.1,4.99,000.00,018.4,017.8,000.0,026.8,020.0,14.3,0000.0,0003.17,0001.34,0001.03
2024-02-09 13:15:00,SystemResetWarning,0821.1,5.00,000.00,018.4,017.8,000.0,026.8,020.0,14.2,0000.0,0002.98,0001.35,0001.03
2024-02-09 13:16:00,SystemResetWarning,0821.1,5.01,000.00,018.4,017.8,000.0,026.8,020.0,14.2,0000.0,0002.82,0001.37,0001.03
2024-02-09 13:17:00,SystemResetWarning,0821.1,5.01,000.00,018.4,017.7,000.0,026.8,020.0,14.3,0000.0,0002.80,0001.37,0001.03
2024-02-09 13:18:00,SystemResetWarning,0821.0,5.01,000.00,018.3,017.7,000.0,026.8,020.0,14.3,0000.0,0002.74,0001.35,0001.03
2024-02-09 13:19:00,SystemResetWarning,0821.3,4.99,000.00,018.3,017.7,000.0,026.8,020.0,14.3,0000.0,0002.75,0001.34,0001.02
2024-02-09 13:20:00,SystemResetWarning,0821.4,4.99,000.00,018.3,017.6,000.0,026.8,020.0,14.3,0000.0,0002.98,0001.31,0001.02
2024-02-09 13:21:00,SystemResetWarning,0821.2,4.99,000.00,018.3,017.6,000.0,026.8,020.0,14.3,0000.0,0002.97,0001.31,0001.02
2024-02-09 13:22:00,SystemResetWarning,0821.1,5.01,000.00,018.3,017.6,000.0,026.9,020.0,14.3,0000.0,0002.96,0001.33,0001.03
2024-02-09 13:23:00,SystemResetWarning,0821.1,5.01,000.00,018.3,017.6,000.0,026.9,020.0,14.2,0000.0,0002.87,0001.35,0001.03
2024-02-09 13:24:00,SystemResetWarning,0821.1,4.99,000.00,018.3,017.6,000.0,026.9,020.0,14.3,0000.0,0002.56,0001.35,0001.05
2024-02-09 13:25:00,SystemResetWarning,0821.1,4.99,000.00,018.3,017.6,000.0,026.9,020.0,14.2,0000.0,0002.71,0001.40,0001.06
2024-02-09 13:26:00,SystemResetWarning,0821.1,5.01,000.00,018.3,017.6,000.0,026.9,020.0,14.2,0000.0,0002.82,0001.44,0001.08
2024-02-09 13:27:00,SystemResetWarning,0821.2,5.01,000.00,018.3,017.5,000.0,026.9,020.0,14.2,0000.0,0002.98,0001.42,0001.07
2024-02-09 13:28:00,SystemResetWarning,0821.2,5.01,000.00,018.3,017.5,000.0,026.9,020.0,14.1,0000.0,0003.11,0001.43,0001.06
2024-02-09 13:29:00,SystemResetWarning,0821.2,5.00,000.00,018.3,017.5,000.0,026.9,020.0,14.1,0000.0,0003.18,0001.45,0001.07
2024-02-09 13:30:00,SystemResetWarning,0821.2,5.00,000.00,018.3,017.5,000.0,026.9,020.0,14.1,0000.0,0003.12,0001.47,0001.09
2024-02-09 13:31:00,SystemResetWarning,0821.3,4.99,000.00,018.3,017.5,000.0,026.9,020.0,14.0,0000.0,0002.76,0001.49,0001.10
2024-02-09 13:32:00,SystemResetWarning,0821.3,5.00,000.00,018.3,017.5,000.0,026.9,020.0,13.9,0000.0,0002.97,0001.50,0001.10
2024-02-09 13:33:00,SystemResetWarning,0821.3,5.01,000.00,018.3,017.5,000.0,026.9,020.0,13.9,0000.0,0003.41,0001.47,0001.10
2024-02-09 13:34:00,SystemResetWarning,0821.3,5.01,000.00,018.4,018.0,000.0,027.0,020.3,13.9,0000.0,0003.90,0001.48,0001.10
2024-02-09 13:35:00,SystemResetWarning,0821.3,4.99,000.00,018.6,018.7,000.0,027.1,020.8,13.7,0000.0,0004.08,0001.49,0001.08
2024-02-09 13:36:00,SystemResetWarning,0821.3,4.99,000.00,018.7,018.8,000.0,027.0,020.7,13.7,0000.0,0003.94,0001.44,0001.07
2024-02-09 13:37:00,SystemResetWarning,0821.3,5.00,000.00,018.7,018.6,000.0,026.9,020.5,13.7,0000.0,0003.96,0001.43,0001.06
2024-02-09 13:38:00,SystemResetWarning,0821.3,5.00,000.00,018.6,018.5,000.0,026.9,020.3,13.7,0000.0,0003.88,0001.47,0001.05
2024-02-09 13:39:00,SystemResetWarning,0821.3,5.00,000.00,018.6,018.4,000.0,026.8,020.3,13.7,0000.0,0005.82,0001.48,0001.06
2024-02-09 13:40:00,SystemResetWarning,0821.3,5.00,000.00,018.6,018.3,000.0,026.8,020.2,13.7,0000.0,0006.30,0001.49,0001.05
2024-02-09 13:41:00,SystemResetWarning,0821.3,5.00,000.00,018.6,018.2,000.0,026.8,020.1,13.7,0000.0,0007.34,0001.55,0001.03
2024-02-09 13:42:00,SystemResetWarning,0821.5,5.01,000.00,018.5,018.1,000.0,026.8,020.1,13.6,0000.0,0008.26,0001.60,0001.03
2024-02-09 13:43:00,SystemResetWarning,0821.4,4.99,000.00,018.5,018.1,000.0,026.8,020.1,13.4,0000.0,0008.63,0001.66,0001.03
2024-02-09 13:44:00,SystemResetWarning,0821.6,5.01,000.00,018.5,018.0,000.0,026.8,020.1,13.2,0000.0,0009.50,0001.79,0001.03
2024-02-09 13:45:00,SystemResetWarning,0822.0,5.00,000.00,018.5,018.0,000.0,026.8,020.1,13.3,0000.0,0010.29,0001.83,0001.03
2024-02-09 13:46:00,SystemResetWarning,0822.0,5.00,000.00,018.5,018.0,000.0,026.8,020.1,13.4,0000.0,0011.00,0001.91,0001.03
2024-02-09 13:47:00,SystemResetWarning,0821.9,4.99,000.00,018.4,017.9,000.0,026.8,020.1,13.3,0000.0,0011.14,0001.97,0001.03
2024-02-09 13:48:00,SystemResetWarning,0822.0,5.01,000.00,018.4,017.9,000.0,026.8,020.1,13.3,0000.0,0011.28,0002.04,0001.02
2024-02-09 13:49:00,SystemResetWarning,0822.0,5.01,000.00,018.4,017.9,000.0,026.8,020.1,13.2,0000.0,0011.76,0002.15,0001.02
2024-02-09 13:50:00,SystemResetWarning,0822.0,5.00,000.00,018.4,017.9,000.0,026.8,020.1,13.2,0000.0,0012.55,0002.23,0001.01
2024-02-09 13:51:00,SystemResetWarning,0822.0,5.00,000.00,018.4,017.9,000.0,026.8,020.0,13.2,0000.0,0012.31,0002.23,0001.01
2024-02-09 13:52:00,SystemResetWarning,0822.0,4.99,000.00,018.4,017.9,000.0,026.8,020.0,13.2,0000.0,0011.93,0002.23,0001.01
2024-02-09 13:53:00,SystemResetWarning,0821.6,4.99,000.00,018.4,017.9,000.0,026.8,020.0,13.2,0000.0,0011.69,0002.28,0001.00
2024-02-09 13:54:00,SystemResetWarning,0821.6,5.00,000.00,018.4,017.8,000.0,026.8,020.0,13.2,0000.0,0012.40,0002.32,0000.98
2024-02-09 13:55:00,SystemResetWarning,0821.6,5.01,000.00,018.4,017.8,000.0,026.8,020.0,13.3,0000.0,0012.33,0002.28,0000.97
2024-02-09 13:56:00,SystemResetWarning,0821.5,5.00,000.00,018.4,017.8,000.0,026.8,020.0,13.3,0000.0,0011.80,0002.29,0000.96
2024-02-09 13:57:00,SystemResetWarning,0821.5,5.01,000.00,018.3,017.8,000.0,026.8,020.0,13.4,0000.0,0011.87,0002.25,0000.96
2024-02-09 13:58:00,SystemResetWarning,0821.6,5.00,000.00,018.3,017.8,000.0,026.8,020.0,13.4,0000.0,0011.99,0002.26,0000.96
2024-02-09 13:59:00,SystemResetWarning,0821.6,4.99,000.00,018.3,017.7,000.0,026.8,020.0,13.4,0000.0,0012.10,0002.27,0000.96
